map of KTR home
KTR - Airport
Location
City:  Katherine, Northern Territory, Australia
Name:Tindal
ICAO:YPTN
IATA:KTR

Details
Type:Airport (Aerodrome, Airfield)
Use:Military
Latitude:14°31'16"S (-14.521110)
Longitude:132°22'40"E (132.377778)
Datum:WGS 1984
Elevation:443 ft (135 m)
Variation:3.22°E (WMM2015 magnetic declination)
-0.08° annual change
Runways:1
Longest:9003 × 150 ft (2744 × 45.5 m), paved

Time
Time Zone:UTC+9:30
Local Time:

Weather
METAR:YPTN 211300Z AUTO 15005KT 9999 // NCD 19/09 Q1013
TAF:YPTN 211103Z 2112/2212 06005KT CAVOK
FM220000 10011KT CAVOK

Related Locations
Nearby:
Farthest:CAY: 11693 mi / 18818 km
Cayenne [Félix Eboué Airport (Rochambeau Airport)], GF

Find:

   beyond  
but within

Other Information
Maps:
NOTAMs:
Links:
Sources:

  
flag of Australia
flag of Northern Territory
  

Sectional Chart

Flight Planning
at skyvector.com

Satellite Image

Google Maps Satellite view

 

Copyright © 2004-2017 Karl L. Swartz. All rights reserved.
The Great Circle Mapper name and logo are trademarks of the Great Circle Mapper.
All other trademarks mentioned herein belong to their respective owners.
Please see credits for attibutions and further copyright information.

  Follow gcmap on Facebook Follow gcmap on Twitter Follow gcmap on Google+ GCmap on LinkedIn

hCard Microformat

Geo Microformat